Narrows Sub (686, 687, 800) Station Data

Red Flag Warning: No
Fire Weather Zone: 262
SDGE Region: Ramona
Lat/Lon: 33.137/-116.294

Observations

Time Wind Speed/Gust Temp(F) RH Fuel Moist Fuel Temp(F) Dewpt(F) Tmax(F) Tmin(F) Accum Precip 10-min Precip SL Press(mb)
5/24 8:30am 249 6 G 17 92° 11% - - 30° 93.2° 83.2° 0.0" 0.0" 1009.0
5/24 8:20am 274 8 G 18 90° 10% - - 27° 91.7° 83.2° 0.0" 0.0" 1009.0
5/24 8:10am 278 8 G 15 89° 12% - - 31° 90.9° 83.2° 0.0" 0.0" 1008.0
5/24 8:00am 278 10 G 17 88° 13% - - 32° 90.9° 83.2° 0.0" 0.0" 1009.0
5/24 7:50am 276 8 G 17 87° 14% - - 32° 90.9° 83.2° 0.0" 0.0" 1008.0
5/24 7:40am 272 8 G 17 87° 14% - - 33° 90.9° 83.2° 0.0" 0.0" 1008.0
5/24 7:30am 279 10 G 17 87° 14% - - 33° 90.9° 83.2° 0.0" 0.0" 1008.0
5/24 7:20am 279 11 G 19 87° 15% - - 33° 90.9° 83.2° 0.0" 0.0" 1008.0
5/24 7:10am 278 11 G 18 86° 15% - - 33° 90.9° 83.2° 0.0" 0.0" 1008.0
5/24 7:00am 278 9 G 16 85° 17% - - 35° 90.9° 83.2° 0.0" 0.0" 1009.0
5/24 6:50am 241 5 G 14 84° 19% - - 37° 90.9° 83.2° 0.0" 0.0" 1009.0
5/24 6:40am 270 8 G 17 84° 19% - - 38° 90.9° 83.3° 0.0" 0.0" 1009.0
5/24 6:30am 265 9 G 20 84° 19% - - 37° 90.9° 83.6° 0.0" 0.0" 1009.0
5/24 6:20am 277 11 G 20 84° 19% - - 37° 90.9° 83.6° 0.0" 0.0" 1009.0
5/24 6:10am 274 13 G 23 84° 19% - - 37° 90.9° 83.6° 0.0" 0.0" 1009.0
5/24 6:00am 256 8 G 20 85° 18% - - 37° 90.9° 83.8° 0.0" 0.0" 1009.0
5/24 5:50am 243 6 G 15 85° 17% - - 36° 90.9° 84.2° 0.0" 0.0" 1009.0
5/24 5:40am 239 7 G 19 85° 17% - - 35° 90.9° 84.8° 0.0" 0.0" 1009.0
5/24 5:30am 236 7 G 15 86° 16% - - 35° 90.9° 84.8° 0.0" 0.0" 1009.0
5/24 5:20am 247 7 G 16 86° 17% - - 36° 90.9° 84.8° 0.0" 0.0" 1009.0
5/24 5:10am 227 7 G 16 86° 17% - - 36° 90.9° 84.8° 0.0" 0.0" 1009.0
5/24 5:00am 231 7 G 19 86° 16% - - 35° 90.9° 84.8° 0.0" 0.0" 1009.0
5/24 4:50am 226 7 G 16 86° 16% - - 35° 90.9° 84.8° 0.0" 0.0" 1009.0
5/24 4:40am 227 7 G 15 86° 16% - - 34° 90.9° 84.8° 0.0" 0.0" 1009.0
5/24 4:30am 240 7 G 16 87° 15% - - 33° 90.9° 84.8° 0.0" 0.0" 1009.0
5/24 4:20am 230 7 G 18 87° 14% - - 33° 90.9° 84.8° 0.0" 0.0" 1009.0
5/24 4:10am 241 8 G 17 87° 14% - - 32° 90.9° 84.8° 0.0" 0.0" 1009.0
5/24 4:00am 241 8 G 20 88° 13% - - 31° 90.9° 84.8° 0.0" 0.0" 1009.0
5/24 3:50am 244 6 G 16 86° 14% - - 32° 90.9° 84.8° 0.0" 0.0" 1009.0
5/24 3:40am 220 5 G 11 85° 16% - - 34° 90.9° 84.8° 0.0" 0.0" 1009.0
5/24 3:30am 218 5 G 10 86° 15% - - 33° 90.9° 85° 0.0" 0.0" 1009.0
5/24 3:20am 221 5 G 11 86° 16% - - 34° 90.9° 85° 0.0" 0.0" 1009.0
5/24 3:10am 220 5 G 9 86° 16% - - 34° 90.9° 85.1° 0.0" 0.0" 1009.0
5/24 3:00am 215 4 G 9 86° 16% - - 35° 90.9° 85.3° 0.0" 0.0" 1009.0
5/24 2:50am 247 6 G 14 86° 17% - - 36° 90.9° 85.5° 0.0" 0.0" 1009.0
5/24 2:40am 271 7 G 14 87° 16% - - 35° 90.9° 86.1° 0.0" 0.0" 1009.0
5/24 2:30am 260 7 G 16 88° 14% - - 33° 90.9° 87° 0.0" 0.0" 1009.0
5/24 2:20am 234 6 G 16 89° 13% - - 32° 90.9° 87.7° 0.0" 0.0" 1009.0
5/24 2:10am 229 6 G 17 89° 14% - - 34° 90.9° 87.8° 0.0" 0.0" 1009.0
5/24 2:00am 219 8 G 15 89° 15% - - 35° 90.9° 87.9° 0.0" 0.0" 1009.0
5/24 1:50am 209 8 G 17 88° 16% - - 36° 90.9° 87.9° 0.0" 0.0" 1010.0
5/24 1:40am 197 9 G 15 88° 17% - - 37° 90.9° 88° 0.0" 0.0" 1010.0
5/24 1:30am 190 9 G 21 88° 17% - - 38° 90.9° 88° 0.0" 0.0" 1010.0
5/24 1:20am 190 10 G 18 89° 17% - - 39° 90.9° 88.3° 0.0" 0.0" 1010.0
5/24 1:10am 195 8 G 18 89° 17% - - 39° 90.9° 88.4° 0.0" 0.0" 1010.0
5/24 1:00am 195 10 G 19 89° 18% - - 39° 90.9° 88.6° 0.0" 0.0" 1010.0
5/24 12:50am 184 9 G 20 89° 17% - - 38° 90.9° 88.9° 0.0" 0.0" 1010.0
5/24 12:40am 194 8 G 18 90° 16% - - 37° 90.9° 89.2° 0.0" 0.0" 1010.0
5/24 12:30am 185 7 G 15 90° 15% - - 36° 90.9° 89.7° 0.0" 0.0" 1010.0
5/24 12:20am 198 6 G 15 90° 14% - - 35° 90.9° 89.8° 0.0" 0.0" 1010.0
5/24 12:10am 191 7 G 19 90° 15% - - 36° 90.9° 89.9° 0.0" 0.0" 1010.0
5/24 12:00am 204 7 G 16 90° 15% - - 37° 105.1° 81.7° 0.0" 0.0" 1010.0
5/23 11:50pm 206 6 G 13 91° 15% - - 37° 105.1° 81.7° 0.0" 0.0" 1011.0
5/23 11:40pm 207 7 G 16 90° 15% - - 37° 105.1° 81.7° 0.0" 0.0" 1011.0
5/23 11:30pm 210 5 G 10 90° 15% - - 37° 105.1° 81.7° 0.0" 0.0" 1011.0
5/23 11:20pm 217 5 G 15 90° 16% - - 37° 105.1° 81.7° 0.0" 0.0" 1011.0
5/23 11:10pm 230 6 G 14 90° 16% - - 38° 105.1° 81.7° 0.0" 0.0" 1011.0
5/23 11:00pm 232 5 G 11 90° 15% - - 36° 105.1° 81.7° 0.0" 0.0" 1011.0
5/23 10:50pm 240 5 G 10 90° 14% - - 35° 105.1° 81.7° 0.0" 0.0" 1011.0
5/23 10:40pm 230 5 G 12 90° 14% - - 35° 105.1° 81.7° 0.0" 0.0" 1011.0
5/23 10:30pm 243 5 G 9 90° 15% - - 36° 105.1° 81.7° 0.0" 0.0" 1011.0
5/23 10:20pm 244 5 G 11 91° 14% - - 35° 105.1° 81.7° 0.0" 0.0" 1011.0
5/23 10:10pm 233 4 G 12 92° 14% - - 35° 105.1° 81.7° 0.0" 0.0" 1011.0
5/23 10:00pm 222 6 G 13 92° 14% - - 36° 105.1° 81.7° 0.0" 0.0" 1011.0
5/23 9:50pm 206 7 G 16 92° 15% - - 37° 105.1° 81.7° 0.0" 0.0" 1011.0
5/23 9:40pm 201 8 G 16 92° 15% - - 37° 105.1° 81.7° 0.0" 0.0" 1011.0
5/23 9:30pm 183 8 G 16 91° 15% - - 38° 105.1° 81.7° 0.0" 0.0" 1011.0
5/23 9:20pm 198 9 G 21 91° 16% - - 39° 105.1° 81.7° 0.0" 0.0" 1011.0
5/23 9:10pm 183 8 G 16 91° 16% - - 39° 105.1° 81.7° 0.0" 0.0" 1011.0
5/23 9:00pm 198 7 G 20 91° 17% - - 40° 105.1° 81.7° 0.0" 0.0" 1011.0
5/23 8:50pm 198 7 G 15 92° 17% - - 41° 105.1° 81.7° 0.0" 0.0" 1011.0
5/23 8:40pm 216 8 G 23 92° 17% - - 41° 105.1° 81.7° 0.0" 0.0" 1011.0
5/23 8:30pm 210 7 G 19 92° 17% - - 41° 105.1° 81.7° 0.0" 0.0" 1011.0
5/23 8:20pm 196 10 G 18 93° 16% - - 41° 105.1° 81.7° 0.0" 0.0" 1010.0
5/23 8:10pm 197 8 G 17 93° 16% - - 40° 105.1° 81.7° 0.0" 0.0" 1010.0
5/23 8:00pm 195 6 G 18 93° 16% - - 41° 105.1° 81.7° 0.0" 0.0" 1010.0
5/23 7:50pm 207 7 G 16 94° 15% - - 40° 105.1° 81.7° 0.0" 0.0" 1010.0
5/23 7:40pm 209 7 G 15 95° 14% - - 39° 105.1° 81.7° 0.0" 0.0" 1010.0
5/23 7:30pm 213 9 G 19 95° 14% - - 38° 105.1° 81.7° 0.0" 0.0" 1010.0
5/23 7:20pm 220 8 G 22 96° 13% - - 38° 105.1° 81.7° 0.0" 0.0" 1010.0
5/23 7:10pm 219 7 G 15 96° 12% - - 35° 105.1° 81.7° 0.0" 0.0" 1010.0
5/23 7:00pm 231 7 G 17 97° 11% - - 33° 105.1° 81.7° 0.0" 0.0" 1010.0
5/23 6:50pm 229 6 G 15 98° 10% - - 33° 105.1° 81.7° 0.0" 0.0" 1010.0
5/23 6:40pm 254 10 G 19 98° 10% - - 33° 105.1° 81.7° 0.0" 0.0" 1010.0
5/23 6:30pm 229 7 G 20 98° 13% - - 38° 105.1° 81.7° 0.0" 0.0" 1010.0
5/23 6:20pm 221 8 G 17 98° 14% - - 41° 105.1° 81.7° 0.0" 0.0" 1010.0
5/23 6:10pm 227 9 G 20 98° 15% - - 42° 105.1° 81.7° 0.0" 0.0" 1010.0
5/23 6:00pm 227 7 G 16 98° 15% - - 43° 105.1° 81.7° 0.0" 0.0" 1010.0
5/23 5:50pm 223 8 G 20 98° 15% - - 43° 105.1° 81.7° 0.0" 0.0" 1010.0
5/23 5:40pm 229 9 G 18 98° 15% - - 43° 105.1° 81.7° 0.0" 0.0" 1010.0
5/23 5:30pm 237 9 G 20 99° 16% - - 44° 105.1° 81.7° 0.0" 0.0" 1010.0
5/23 5:20pm 235 9 G 20 99° 15% - - 44° 105.1° 81.7° 0.0" 0.0" 1010.0
5/23 5:10pm 230 9 G 23 99° 15% - - 44° 105.1° 81.7° 0.0" 0.0" 1010.0
5/23 5:00pm 231 9 G 21 100° 15% - - 44° 105.1° 81.7° 0.0" 0.0" 1010.0
5/23 4:50pm 243 10 G 21 100° 14% - - 43° 105.1° 81.7° 0.0" 0.0" 1010.0
5/23 4:40pm 249 9 G 19 101° 14% - - 43° 105.1° 81.7° 0.0" 0.0" 1010.0
5/23 4:30pm 248 9 G 24 102° 14% - - 44° 105.1° 81.7° 0.0" 0.0" 1010.0
5/23 4:20pm 224 6 G 15 103° 10% - - 34° 105.1° 81.7° 0.0" 0.0" 1010.0
5/23 4:10pm 139 7 G 14 103° 8% - - 30° 105.1° 81.7° 0.0" 0.0" 1010.0
5/23 4:00pm 150 6 G 11 103° 8% - - 30° 105.1° 81.7° 0.0" 0.0" 1010.0
5/23 3:50pm 78 7 G 13 104° 8% - - 30° 105.1° 81.7° 0.0" 0.0" 1010.0
5/23 3:40pm 14 6 G 14 104° 8% - - 31° 105.1° 81.7° 0.0" 0.0" 1010.0
5/23 3:30pm 20 6 G 12 103° 8% - - 31° 105.1° 81.7° 0.0" 0.0" 1010.0
5/23 3:20pm 27 8 G 16 103° 8% - - 31° 105.1° 81.7° 0.0" 0.0" 1010.0
5/23 3:10pm 40 7 G 14 103° 8% - - 31° 105.1° 81.7° 0.0" 0.0" 1011.0
5/23 3:00pm 44 7 G 15 104° 8% - - 31° 105.1° 81.7° 0.0" 0.0" 1011.0
5/23 2:50pm 75 7 G 13 104° 8% - - 31° 105.1° 81.7° 0.0" 0.0" 1011.0
5/23 2:40pm 56 7 G 18 104° 8% - - 30° 105.1° 81.7° 0.0" 0.0" 1011.0
5/23 2:30pm 47 8 G 12 104° 8% - - 29° 104.9° 81.7° 0.0" 0.0" 1011.0
5/23 2:20pm 50 5 G 13 103° 8% - - 29° 104.7° 81.7° 0.0" 0.0" 1011.0
5/23 2:10pm 61 6 G 13 103° 8% - - 29° 104.7° 81.7° 0.0" 0.0" 1011.0
5/23 2:00pm 67 7 G 14 104° 7% - - 29° 104.7° 81.7° 0.0" 0.0" 1011.0
5/23 1:50pm 61 6 G 13 103° 8% - - 29° 104.7° 81.7° 0.0" 0.0" 1011.0
5/23 1:40pm 44 6 G 12 103° 8% - - 29° 104.7° 81.7° 0.0" 0.0" 1012.0
5/23 1:30pm 93 7 G 16 103° 8% - - 29° 104.7° 81.7° 0.0" 0.0" 1012.0
5/23 1:20pm 50 7 G 14 103° 8% - - 29° 104.7° 81.7° 0.0" 0.0" 1012.0
5/23 1:10pm 54 8 G 16 102° 8% - - 29° 103.4° 81.7° 0.0" 0.0" 1012.0
5/23 1:00pm 63 6 G 11 103° 7% - - 28° 103.3° 81.7° 0.0" 0.0" 1012.0
5/23 12:50pm 40 7 G 12 102° 8% - - 30° 103.2° 81.7° 0.0" 0.0" 1012.0
5/23 12:40pm 84 7 G 14 102° 9% - - 33° 103.2° 81.7° 0.0" 0.0" 1012.0
5/23 12:30pm 53 6 G 12 102° 9% - - 33° 103° 81.7° 0.0" 0.0" 1012.0
5/23 12:20pm 40 6 G 12 101° 9% - - 33° 103° 81.7° 0.0" 0.0" 1012.0
5/23 12:10pm 52 6 G 11 101° 9% - - 33° 103° 81.7° 0.0" 0.0" 1013.0
5/23 12:00pm 58 7 G 13 102° 10% - - 34° 103° 81.7° 0.0" 0.0" 1013.0
5/23 11:50am 49 5 G 14 101° 10% - - 34° 103° 81.7° 0.0" 0.0" 1013.0
5/23 11:40am 53 6 G 11 101° 10% - - 34° 103° 81.7° 0.0" 0.0" 1013.0
5/23 11:30am 51 7 G 12 102° 10% - - 34° 103° 81.7° 0.0" 0.0" 1013.0
5/23 11:20am 62 4 G 8 101° 10% - - 34° 102.7° 81.7° 0.0" 0.0" 1013.0
5/23 11:10am 55 5 G 11 101° 10% - - 34° 101.6° 81.7° 0.0" 0.0" 1013.0
5/23 11:00am 52 6 G 10 100° 10% - - 34° 101.2° 81.7° 0.0" 0.0" 1013.0
5/23 10:50am 52 3 G 6 99° 10% - - 34° 100.8° 81.7° 0.0" 0.0" 1013.0
5/23 10:40am 43 6 G 12 99° 10% - - 33° 100.8° 81.7° 0.0" 0.0" 1013.0
5/23 10:30am 22 4 G 8 100° 10% - - 34° 100.8° 81.7° 0.0" 0.0" 1013.0
5/23 10:20am 59 5 G 9 100° 10% - - 34° 100.4° 81.7° 0.0" 0.0" 1013.0
5/23 10:10am 98 5 G 11 99° 10% - - 34° 100.2° 81.7° 0.0" 0.0" 1013.0
5/23 10:00am 87 4 G 8 100° 11% - - 35° 100.1° 81.7° 0.0" 0.0" 1013.0
5/23 9:50am 67 4 G 9 99° 11% - - 36° 99.7° 81.7° 0.0" 0.0" 1013.0
5/23 9:40am 63 5 G 10 98° 12% - - 35° 98.9° 81.7° 0.0" 0.0" 1013.0
5/23 9:30am 62 3 G 7 98° 11% - - 35° 98.9° 81.7° 0.0" 0.0" 1013.0
5/23 9:20am 57 2 G 6 98° 11% - - 35° 98.7° 81.7° 0.0" 0.0" 1013.0
5/23 9:10am 283 1 G 3 97° 12% - - 36° 98° 81.7° 0.0" 0.0" 1013.0
5/23 9:00am 266 2 G 4 95° 13% - - 36° 96° 81.7° 0.0" 0.0" 1014.0
5/23 8:50am 258 4 G 6 94° 14% - - 37° 94.3° 81.7° 0.0" 0.0" 1014.0
5/23 8:40am 258 5 G 8 93° 14% - - 37° 93.3° 81.7° 0.0" 0.0" 1013.0
5/23 8:30am 262 5 G 9 92° 14% - - 37° 93° 81.7° 0.0" 0.0" 1013.0
5/23 8:20am 251 5 G 10 92° 15% - - 38° 92.9° 81.7° 0.0" 0.0" 1013.0
5/23 8:10am 227 4 G 8 91° 16% - - 38° 92.5° 81.7° 0.0" 0.0" 1013.0
5/23 8:00am 229 4 G 11 90° 17% - - 39° 91.2° 81.7° 0.0" 0.0" 1013.0
5/23 7:50am 217 5 G 8 89° 18% - - 39° 89.6° 81.7° 0.0" 0.0" 1013.0
5/23 7:40am 216 5 G 8 87° 19% - - 39° 88.2° 81.7° 0.0" 0.0" 1013.0
5/23 7:30am 215 6 G 9 86° 19% - - 40° 87.4° 81.7° 0.0" 0.0" 1013.0
5/23 7:20am 213 5 G 11 86° 19% - - 39° 87.4° 81.7° 0.0" 0.0" 1013.0
5/23 7:10am 228 5 G 11 85° 20% - - 40° 87.4° 81.7° 0.0" 0.0" 1013.0
5/23 7:00am 217 6 G 10 84° 21% - - 40° 87.4° 81.7° 0.0" 0.0" 1013.0
5/23 6:50am 215 6 G 10 84° 21% - - 40° 87.4° 81.7° 0.0" 0.0" 1013.0
5/23 6:40am 210 8 G 13 83° 21% - - 40° 87.4° 81.7° 0.0" 0.0" 1013.0
5/23 6:30am 220 6 G 10 83° 22% - - 40° 87.4° 81.7° 0.0" 0.0" 1013.0
5/23 6:20am 215 6 G 10 83° 22% - - 40° 87.4° 81.7° 0.0" 0.0" 1013.0
5/23 6:10am 211 6 G 9 82° 22% - - 40° 87.4° 81.7° 0.0" 0.0" 1013.0
5/23 6:00am 210 6 G 11 82° 22% - - 39° 87.4° 81.7° 0.0" 0.0" 1013.0